This demonstration page uses our WeatherBlox Daily Observations layout. Learn more.

Left ArrowRight Arrow

44.8408, -93.29828

Hourly Observations for August 19, 2021

Temp ( °F °C ) Dew Point ( °F °C ) Humidity (%) Winds ( mph kmh ) Pressure ( in mb ) Visibility ( mi km ) Precip ( " mm )
12:53 am 00:53 Clear 75 23.9 66 18.9 74 74 SE 7 11 30.04 1017 10 16 0.00 0.00
1:53 am 01:53 Clear 75 23.9 66 18.9 74 74 S 6 9 30.04 1017 10 16 0.00 0.00
2:53 am 02:53 Clear 73 22.8 65 18.3 76 76 S 6 9 30.04 1017 10 16 0.00 0.00
3:53 am 03:53 Clear 74 23.3 65 18.3 74 74 S 7 11 30.03 1017 10 16 0.00 0.00
4:53 am 04:53 Clear 72 22.2 65 18.3 79 79 SE 3 6 30.02 1017 10 16 0.00 0.00
5:53 am 05:53 Clear 71 21.7 65 18.3 81 81 SE 6 9 30.02 1017 10 16 0.00 0.00
6:53 am 06:53 Sunny 70 21.1 65 18.3 84 84 ESE 7 11 30.04 1017 10 16 0.00 0.00
7:53 am 07:53 Sunny 72 22.2 65 18.3 79 79 SE 7 11 30.04 1017 10 16 0.00 0.00
8:53 am 08:53 Sunny 74 23.3 66 18.9 76 76 SE 7 11 30.04 1017 10 16 0.00 0.00
9:53 am 09:53 Mostly Sunny 78 25.6 68 20 71 71 SSE 5 7 30.04 1017 10 16 0.00 0.00
10:53 am 10:53 Sunny 83 28.3 69 20.6 63 63 VRB 5 7 30.04 1017 10 16 0.00 0.00
11:53 am 11:53 Mostly Sunny 86 30 69 20.6 57 57 S 7 11 30.02 1017 10 16 0.00 0.00
12:53 pm 12:53 Partly Cloudy 87 30.6 68 20 53 53 S 13 20 30.00 1016 10 16 0.00 0.00
1:53 pm 13:53 Partly Cloudy 89 31.7 67 19.4 48 48 S 13 20 29.99 1016 10 16 0.00 0.00
2:53 pm 14:53 Partly Cloudy 89 31.7 66 18.9 47 47 S 13 20 29.97 1015 10 16 0.00 0.00
3:53 pm 15:53 Partly Cloudy 89 31.7 66 18.9 47 47 S 13 20 29.96 1014 10 16 0.00 0.00
4:53 pm 16:53 Partly Cloudy 90 32.2 66 18.9 45 45 S 13 20 29.94 1014 10 16 0.00 0.00
5:53 pm 17:53 Mostly Sunny 88 31.1 65 18.3 46 46 SSW 10 17 29.94 1014 10 16 0.00 0.00
6:53 pm 18:53 Partly Cloudy 88 31.1 64 17.8 45 45 SSW 10 17 29.93 1013 10 16 0.00 0.00
7:53 pm 19:53 Mostly Sunny 86 30 66 18.9 51 51 S 10 17 29.92 1013 10 16 0.00 0.00
8:53 pm 20:53 Mostly Clear 84 28.9 67 19.4 57 57 SSE 7 11 29.93 1014 10 16 0.00 0.00
9:53 pm 21:53 Mostly Clear 81 27.2 68 20 65 65 SSE 8 13 29.93 1014 10 16 0.00 0.00
10:53 pm 22:53 Clear 79 26.1 69 20.6 72 72 SSE 9 15 29.94 1014 10 16 0.00 0.00
11:53 pm 23:53 Clear 78 25.6 69 20.6 74 74 SSE 8 13 29.93 1014 10 16 0.00 0.00

Powered by AerisWeather